Regional Weather Roundup
Issued by NWS Bismarck, ND

Home | Current Version | Previous Version | Text Only | Print | Product List | Glossary On
Versions: 1 2 3 4 5 6 7 8 9 10 11 12 13 14 15 16 17 18 19 20 21 22 23 24 25 26 27 28 29 30 31 32 33 34 35 36 37 38 39 40 41 42 43 44 45 46 47 48 49 50
000
ASUS43 KBIS 281510
RWRBIS

NWR BROADCAST TEXT
NATIONAL WEATHER SERVICE BISMARCK ND
1000 AM CDT WED SEP 28 2016

NOTE: "FAIR" INDICATES FEW OR NO CLOUDS BELOW 12,000 FEET WITH NO
SIGNIFICANT WEATHER AND/OR OBSTRUCTIONS TO VISIBILITY.


CITY           SKY/WX    TMP DP  RH WIND       PRES   REMARKS
WILLISTON      SUNNY     53  47  79 N9        30.25R
MINOT          SUNNY     53  43  68 CALM      30.25R
MINOT AFB      SUNNY     50  42  73 E2        30.25R
BISMARCK       SUNNY     48  42  80 E5        30.27R
DICKINSON      SUNNY     55  45  68 S3        30.22R
GARRISON         N/A     53  44  71 S3        30.25R
HETTINGER ARPT SUNNY     56  45  66 SE5       30.25R
JAMESTOWN      CLOUDY    48  44  86 N6        30.28R
BEACH          FAIR      54  52  94 N8        30.28R
CARRINGTON     CLOUDY    46  45  93 CALM      30.30R
HAZEN          FAIR      50  41  71 CALM      30.27R
MANDAN         FAIR      50  41  71 E3        30.27R
RUGBY          FAIR      46  46 100 E3        30.28R
STANLEY        FAIR      52  46  82 SE5       30.27R
WATFORD CITY   FAIR      54  50  87 N5        30.24R
$$

CITY           SKY/WX    TMP DP  RH WIND       PRES   REMARKS
GRAND FORKS    CLOUDY    50  44  80 NE3       30.29R
GRAND FORKS AF SUNNY     50  44  80 NE2       30.29R
DEVILS LAKE    CLOUDY    48  45  89 CALM      30.29R
FARGO          CLOUDY    50  45  83 N8        30.27R
CANDO          FOG       45  45 100 CALM      30.31R VSB<1/4
CAVALIER       FAIR      50  45  81 N3        30.30R
GRAFTON        FAIR      50  46  87 CALM      30.31R
GWINNER        FAIR      48  45  87 NE9       30.28R
LANGDON        FAIR      50  46  87 CALM      30.29R
ROLLA          FAIR      50  48  93 CALM      30.29R
WALHALLA       FAIR      48  46  93 CALM      30.30R
$$

CITY           SKY/WX    TMP DP  RH WIND       PRES   REMARKS
ABERDEEN       SUNNY     50  42  74 NE7       30.28R
MOBRIDGE       SUNNY     54  43  66 E6        30.24R
BUFFALO          N/A     65  47  52 NW8       30.18R
RAPID CITY     SUNNY     65  46  50 SE3       30.24R
GLASGOW        SUNNY     53  44  71 VRB7      30.29R
SIDNEY         SUNNY     55  48  77 N10       30.26R
WOLF POINT     SUNNY     56  46  69 NE5       30.28R
GLENDIVE       SUNNY     54  49  83 N10       30.27R
MILES CITY     SUNNY     56  48  74 N5        30.28R
BAKER          SUNNY     56  49  77 NW3       30.26R
$$

CITY           SKY/WX    TMP DP  RH WIND       PRES   REMARKS
BILLINGS       SUNNY     53  45  74 E6        30.32R
GREAT FALLS    SUNNY     45  38  76 W3        30.32S
REGINA         MOSUNNY   50  45  81 N10       30.30R
ESTEVAN        MOSUNNY   48  41  76 CALM      30.25R
$$




USA.gov is the U.S. government's official web portal to all federal, state and local government web resources and services.